Weather History for Springfield, MO

Change the Weather History Date:

Friday, June 14, 2013

  Actual Average Record
Temperature  
Mean Temperature 76 °F 73 °F  
Max Temperature 88 °F 84 °F 100 °F (1963)
Min Temperature 64 °F 63 °F 44 °F (1942)
Degree Days  
Heating Degree Days 0 0  
Month to date heating degree days 14 7  
Since 1 June heating degree days 14 7  
Since 1 July heating degree days 4508 4576  
Cooling Degree Days 11 8  
Month to date cooling degree days 78 98  
Year to date cooling degree days 205 213  
Since 1 June cooling degree days 78 98  
Growing Degree Days 26 (Base 50)    
Moisture  
Dew Point 65 °F    
Average Humidity 74    
Maximum Humidity 93    
Minimum Humidity 55    
Precipitation  
Precipitation 0.00 in 0.16 in 2.90 in (1937)
Month to date precipitation 1.00 2.24  
Year to date precipitation 24.72 20.27  
Snow  
Snow 0.00 in - - ()
Month to date snowfall 0.0  
Since 1 June snowfall 0.0  
Since 1 July snowfall 12.7  
Snow Depth 0.00 in    
Sea Level Pressure  
Sea Level Pressure 29.98 in    
Wind  
Wind Speed 10 mph (SE)    
Max Wind Speed 20 mph    
Max Gust Speed 22 mph    
Visibility 10 miles    
Events      
T = Trace of Precipitation, MM = Missing Value Source: NWS Daily Summary

Daily Weather History Graph

Daily Weather History Graph

Search for Another Location

Airport:

Trip Planner

Search our weather history database for the weather conditions in past years. The results will help you decide how hot, cold, wet, or windy it might be!

Date:

Astronomy

Jun. 14, 2013 Rise Set
Actual Time 5:52 AM CDT 8:35 PM CDT
Civil Twilight 5:21 AM CDT 9:06 PM CDT
Nautical Twilight 4:43 AM CDT 9:44 PM CDT
Astronomical Twilight 3:59 AM CDT 10:28 PM CDT
Moon 11:21 AM CDT (6/14) No Moon Set
Length of Visible Light 15h 44m
Length of Day
14h 42m
Waxing Crescent, 30% of the Moon is Illuminated
Jun 14
Waxing Crescent
Jun 16
First Quarter
Jun 23
Full
Jun 29
Last Quarter
Jul 8
New

Hourly Weather History & Observations

Time (CDT) Temp. Heat Index Dew Point Humidity Pressure Visibility Wind Dir Wind Speed Gust Speed Precip Events Conditions
12:52 AM 72.0 °F - 64.0 °F 76% 29.99 in 10.0 mi East 4.6 mph - N/A   Clear
1:52 AM 68.0 °F - 62.1 °F 81% 30.00 in 10.0 mi East 3.5 mph - N/A   Clear
2:52 AM 68.0 °F - 63.0 °F 84% 30.00 in 10.0 mi SE 3.5 mph - N/A   Clear
3:52 AM 66.0 °F - 62.1 °F 87% 29.99 in 10.0 mi SE 5.8 mph - N/A   Clear
4:52 AM 64.9 °F - 62.1 °F 90% 30.00 in 10.0 mi SSE 6.9 mph - N/A   Clear
5:52 AM 64.9 °F - 61.0 °F 87% 30.01 in 10.0 mi SE 8.1 mph - N/A   Clear
6:52 AM 66.9 °F - 62.1 °F 84% 30.01 in 10.0 mi SE 10.4 mph - N/A   Clear
7:52 AM 70.0 °F - 63.0 °F 78% 30.01 in 10.0 mi SSE 12.7 mph - N/A   Clear
8:52 AM 73.9 °F - 64.0 °F 71% 30.03 in 10.0 mi SSE 16.1 mph - N/A   Clear
9:52 AM 77.0 °F - 64.0 °F 64% 30.03 in 10.0 mi SSE 16.1 mph - N/A   Clear
10:52 AM 79.0 °F - 64.0 °F 60% 30.01 in 10.0 mi SSE 12.7 mph - N/A   Clear
11:52 AM 82.0 °F 84.1 °F 66.0 °F 58% 30.00 in 10.0 mi SE 13.8 mph - N/A   Clear
12:52 PM 82.9 °F 85.0 °F 66.0 °F 56% 30.01 in 10.0 mi Variable 5.8 mph 16.1 mph N/A   Clear
1:52 PM 84.0 °F 87.8 °F 69.1 °F 61% 29.99 in 10.0 mi South 10.4 mph - N/A   Clear
2:52 PM 86.0 °F 90.7 °F 70.0 °F 59% 29.97 in 10.0 mi SE 9.2 mph - N/A   Clear
3:52 PM 87.1 °F 91.3 °F 69.1 °F 55% 29.96 in 10.0 mi Variable 6.9 mph - N/A   Clear
4:52 PM 87.1 °F 91.3 °F 69.1 °F 55% 29.95 in 10.0 mi ESE 4.6 mph - N/A   Partly Cloudy
5:52 PM 87.1 °F 91.3 °F 69.1 °F 55% 29.93 in 10.0 mi ESE 11.5 mph - N/A   Clear
6:52 PM 84.9 °F 88.8 °F 69.1 °F 59% 29.92 in 10.0 mi SE 13.8 mph - N/A   Clear
7:52 PM 82.0 °F 84.5 °F 66.9 °F 60% 29.94 in 10.0 mi SE 11.5 mph - N/A   Clear
8:52 PM 80.1 °F 82.3 °F 66.9 °F 64% 29.94 in 10.0 mi SE 15.0 mph - N/A   Clear
9:52 PM 78.1 °F - 64.9 °F 64% 29.96 in 10.0 mi SE 13.8 mph - N/A   Clear
10:52 PM 77.0 °F - 64.9 °F 66% 29.98 in 10.0 mi SSE 13.8 mph - N/A   Clear
11:52 PM 75.9 °F - 64.9 °F 69% 29.98 in 10.0 mi SSE 12.7 mph - N/A   Clear